Weather History for KSDF - July, 2013

Change the Weather History Date:

Saturday, July 27, 2013

  Actual Average Record
Temperature  
Mean Temperature 73 °F 79 °F  
Max Temperature 80 °F 89 °F 104 °F (1952)
Min Temperature 66 °F 70 °F 50 °F (1962)
Degree Days  
Heating Degree Days 0 0  
Month to date heating degree days 0 0  
Since 1 June heating degree days 0 5  
Since 1 July heating degree days 0 0  
Cooling Degree Days 8 14  
Month to date cooling degree days 350 378  
Year to date cooling degree days 913 876  
Since 1 June cooling degree days 685 702  
Growing Degree Days 24 (Base 50)    
Moisture  
Dew Point 62 °F    
Average Humidity 69    
Maximum Humidity 87    
Minimum Humidity 50    
Precipitation  
Precipitation 0.02 in 0.15 in 2.00 in (1992)
Month to date precipitation 5.14 3.68  
Year to date precipitation 28.49 27.34  
Snow  
Snow 0.00 in 0.00 in - ()
Month to date snowfall 0.0 0.0  
Since 1 June snowfall 0.0 0.0  
Since 1 July snowfall 0.0 0.0  
Snow Depth 0.00 in    
Sea Level Pressure  
Sea Level Pressure 29.93 in    
Wind  
Wind Speed 8 mph (WSW)    
Max Wind Speed 16 mph    
Max Gust Speed 22 mph    
Visibility 10 miles    
Events Rain    
T = Trace of Precipitation, MM = Missing Value Source: NWS Daily Summary

Daily Weather History Graph

Daily Weather History Graph

Search for Another Location

Airport or City:

Trip Planner

Search our weather history database for the weather conditions in past years. The results will help you decide how hot, cold, wet, or windy it might be!

Date:

Astronomy

Jul. 27, 2013 Rise Set
Actual Time 6:41 AM EDT 8:56 PM EDT
Civil Twilight 6:11 AM EDT 9:26 PM EDT
Nautical Twilight 5:35 AM EDT 10:02 PM EDT
Astronomical Twilight 4:55 AM EDT 10:42 PM EDT
Moon 11:50 PM EDT (7/27) 12:15 PM EDT (7/27)
Length of Visible Light 15h 14m
Length of Day
14h 15m
Waning Gibbous, 71% of the Moon is Illuminated
Jul 27
Waning Gibbous
Jul 29
Last Quarter
Aug 6
New
Aug 14
First Quarter
Aug 20
Full

Hourly Weather History & Observations

Time (EDT) Temp. Dew Point Humidity Pressure Visibility Wind Dir Wind Speed Gust Speed Precip Events Conditions
12:56 AM 73.0 °F 61.0 °F 66% 29.98 in 10.0 mi West 6.9 mph - 0.00 in Rain Light Rain
1:56 AM 72.0 °F 63.0 °F 73% 29.96 in 10.0 mi WNW 6.9 mph - 0.00 in   Overcast
2:56 AM 70.0 °F 63.0 °F 78% 29.95 in 10.0 mi Calm Calm - 0.00 in   Overcast
3:56 AM 70.0 °F 63.0 °F 78% 29.95 in 10.0 mi Calm Calm - 0.00 in Rain Light Rain
4:56 AM 70.0 °F 63.0 °F 78% 29.94 in 10.0 mi WSW 5.8 mph - 0.00 in Rain Light Rain
5:56 AM 69.1 °F 64.9 °F 87% 29.94 in 8.0 mi South 6.9 mph - 0.00 in Rain Light Rain
6:56 AM 68.0 °F 64.9 °F 90% 29.94 in 9.0 mi South 4.6 mph - 0.01 in   Overcast
7:56 AM 68.0 °F 64.0 °F 87% 29.95 in 10.0 mi SSW 5.8 mph - N/A   Overcast
8:56 AM 69.1 °F 64.9 °F 87% 29.95 in 10.0 mi SW 6.9 mph - 0.00 in   Overcast
9:56 AM 68.0 °F 64.9 °F 90% 29.96 in 9.0 mi WSW 6.9 mph - 0.01 in   Overcast
10:56 AM 69.1 °F 64.0 °F 84% 29.95 in 5.0 mi WSW 13.8 mph - 0.00 in Rain Light Rain
11:56 AM 71.1 °F 64.9 °F 81% 29.94 in 9.0 mi WSW 9.2 mph - 0.00 in   Overcast
12:56 PM 72.0 °F 64.0 °F 76% 29.93 in 10.0 mi SW 13.8 mph - 0.00 in Rain Light Rain
1:56 PM 70.0 °F 64.0 °F 81% 29.94 in 9.0 mi WSW 10.4 mph - 0.00 in Rain Light Rain
2:56 PM 72.0 °F 63.0 °F 73% 29.91 in 10.0 mi SW 8.1 mph - 0.00 in   Mostly Cloudy
3:56 PM 77.0 °F 63.0 °F 62% 29.89 in 10.0 mi WSW 12.7 mph - N/A   Mostly Cloudy
4:56 PM 79.0 °F 63.0 °F 58% 29.87 in 10.0 mi Variable 6.9 mph 17.3 mph N/A   Mostly Cloudy
5:56 PM 77.0 °F 63.0 °F 62% 29.87 in 10.0 mi WNW 10.4 mph - N/A   Mostly Cloudy
6:56 PM 78.1 °F 60.1 °F 54% 29.87 in 10.0 mi WNW 8.1 mph 17.3 mph N/A   Scattered Clouds
7:56 PM 77.0 °F 57.0 °F 50% 29.88 in 10.0 mi WNW 9.2 mph - N/A   Partly Cloudy
8:56 PM 73.9 °F 55.9 °F 53% 29.89 in 10.0 mi WNW 9.2 mph - N/A   Partly Cloudy
9:56 PM 69.1 °F 57.0 °F 65% 29.91 in 10.0 mi WNW 6.9 mph - N/A   Partly Cloudy
10:56 PM 70.0 °F 57.0 °F 63% 29.93 in 10.0 mi WNW 8.1 mph - N/A   Scattered Clouds
11:56 PM 68.0 °F 55.9 °F 65% 29.94 in 10.0 mi NW 11.5 mph - N/A   Scattered Clouds